Flag for Nepal Weather past 2 weeks in Pokhara, Nepal

Now
63 °F

Passing clouds.


Feels Like: 63 °F
Forecast: 55 / 79 °F
Wind: No wind

Location: Kathmandu Airport

Current Time: Oct 25, 2014 at 9:27:03 AM

Latest Report: Oct 25, 2014 at 8:35 AM


Visibility: 4 mi

Pressure: 30.18 "Hg

Humidity: 77%

Dew point: 55 °F

Location of PokharaLocation

Historic Weather in Pokhara — Graph

°F

Pokhara temperature yesterday

Maximum temperature yesterday: 77 °F (at 1:35 PM)
Minimum temperature yesterday: 55 °F (at 2:35 AM)
Average temperature yesterday: 64 °F

Past Weeks' High & Low Weather Summary

 TemperatureHumidityPressure
High81 °F (Oct 11, 1:35 PM)100% (Oct 14, 1:35 AM)30.30 "Hg (Oct 14, 1:35 AM)
Low52 °F (Oct 22, 5:35 AM)36% (Oct 23, 1:35 PM)29.95 "Hg (Oct 10, 3:35 PM)
Average65 °F80%30.12 "Hg
* Reported Oct 10 7:35 AM — Oct 25 7:35 AM, Pokhara, Weather by CustomWeather, © 2014

Note: Actual official high and low records may vary slightly from our data, if they occured in-between our weather recording intervals... More about our weather records

Advertising

Pokhara weather history for previous 24 hours

 ConditionsComfort  
Time TempWeatherWind HumidityBarometerVisibility
7:35 AM
Oct 25
57 °FPassing clouds.No wind88%30.15 "Hg4 mi
6:35 AM55 °FPassing clouds.3 mph94%30.12 "Hg4 mi
5:35 AM55 °FPassing clouds.No wind88%30.12 "Hg4 mi
4:35 AM55 °FPassing clouds.No wind94%30.09 "Hg4 mi
3:35 AM55 °FPassing clouds.No wind94%30.09 "Hg4 mi
2:35 AM57 °FPassing clouds.No wind88%30.09 "Hg4 mi
1:35 AM59 °FPassing clouds.No wind88%30.09 "Hg4 mi
7:35 PM
Oct 24
64 °FPassing clouds.No wind78%30.09 "Hg5 mi
6:35 PM66 °FPassing clouds.3 mph68%30.09 "Hg5 mi
5:35 PM68 °FPassing clouds.8 mph69%30.07 "HgN/A
4:35 PM70 °FScattered clouds.9 mph69%30.04 "HgN/A
3:35 PM73 °FScattered clouds.8 mph57%30.04 "HgN/A
2:35 PM75 °FPassing clouds.5 mph54%30.04 "HgN/A
1:35 PM77 °FPassing clouds.5 mph44%30.07 "HgN/A
12:35 PM73 °FPassing clouds.5 mph53%30.09 "HgN/A
11:35 AM73 °FPassing clouds.3 mph53%30.12 "HgN/A
10:35 AM68 °FPassing clouds.No wind69%30.18 "Hg5 mi
9:35 AM64 °FPassing clouds.No wind78%30.18 "Hg4 mi
Weather by CustomWeather, © 2014

See weather overviewHow to use our weather pages